(250013) = 2002 AT73

Discovered at Socorro on 2002-01-08 by LINEAR.

Orbit

Orbit type: Main Belt

Note: WebGL enabled browser required.

epoch2023-02-25.0
epoch JD2460000.5
perihelion date2020-08-14.57190
perihelion JD2459076.07190
argument of perihelion (°)268.40065
ascending node (°)102.76320
inclination (°)12.53449
eccentricity0.1526619
perihelion distance (AU)2.4503147
Tisserand w.r.t. Jupiter3.2
ΔV w.r.t. Earth (km/sec)10.5
semimajor axis (AU)2.8917792
mean anomaly (°)185.28032
mean daily motion (°/day)0.20042700
aphelion distance (AU)3.333
period (years)4.92
P-vector [x]0.95784103
P-vector [y]0.25910430
P-vector [z]-0.12411902
Q-vector [x]-0.19426413
Q-vector [y]0.90239564
Q-vector [z]0.38463430
absolute magnitude15.94
phase slope0.15
uncertainty0
referenceMPO 745323
observations used563
oppositions13
arc length (days)7819
first opposition used2001
last opposition used2023
residual rms (arc-secs)0.73
perturbers coarse indicatorM-v
perturbers precise indicator003Ek
first observation date used2001-12-17.0
last observation date used2023-05-15.0
computer nameMPCLINUX
JD of orbit computation2456877.858143
perihelion JD uncertainty (days)1.8055E-04
argument of perihelion uncertainty (°)4.5069E-05
ascending node uncertainty (°)2.7745E-05
inclination uncertainty (°)1.0359E-05
eccentricity uncertainty 8.5027E-08
perihelion distance uncertainty (AU)2.6570E-07
Minimum Orbit Intersection Distances (in AU)
for orbit epoch: 2460000.5, reference: E2023-KB5
Mercury2.09686
Venus1.73828
Earth1.488
Mars1.0985
Jupiter2.26054
Saturn6.12763
Uranus15.215
Neptune27.3285

Observations

571 total observations over interval: 2001 12 17.37566 – 2023 05 15.319394
These data are available for download (format description).

Date (UT) J2000 RA J2000 Dec Magn Location Ref
2001 12 17.37566 07 22 12.61 +21 24 52.3 19.9   704 – Lincoln Laboratory ETS, New Mexico MPS 155801
2001 12 17.38270 07 22 12.32 +21 24 53.8 20.1   644 – Palomar Mountain/NEAT MPS 155801
2001 12 17.39087 07 22 11.90 +21 24 56.1 19.8   704 – Lincoln Laboratory ETS, New Mexico MPS 155801
2001 12 17.39308 07 22 11.82 +21 24 57.3 19.8   644 – Palomar Mountain/NEAT MPS 155801
2001 12 17.40496 07 22 11.25 +21 25 01.7 20.4   644 – Palomar Mountain/NEAT MPS 155801
2001 12 17.40609 07 22 11.13 +21 25 02.5 20.0   704 – Lincoln Laboratory ETS, New Mexico MPS 155801
2001 12 17.42131 07 22 10.40 +21 25 07.1 19.8   704 – Lincoln Laboratory ETS, New Mexico MPS 155801
2001 12 17.43652 07 22 09.67 +21 25 11.6 19.9   704 – Lincoln Laboratory ETS, New Mexico MPS 155801
2001 12 20.36834 07 19 47.20 +21 41 37.1 20.4 V 691 – Steward Observatory, Kitt Peak-Spacewatch MPS 173842
2001 12 20.39084 07 19 46.02 +21 41 44.7 20.3 V 691 – Steward Observatory, Kitt Peak-Spacewatch MPS 173842
2001 12 20.41346 07 19 44.84 +21 41 52.2 20.0 V 691 – Steward Observatory, Kitt Peak-Spacewatch MPS 173842
2001 12 25.40583 07 15 23.09 +22 10 22.2 20.6   608 – Haleakala-AMOS MPS 173842
2001 12 25.41628 07 15 22.49 +22 10 25.4 20.6   608 – Haleakala-AMOS MPS 173842
2001 12 25.42683 07 15 21.92 +22 10 29.3 20.7   608 – Haleakala-AMOS MPS 173842
2002 01 08.30001 07 02 04.88 +23 29 13.8 18.8   704 – Lincoln Laboratory ETS, New Mexico MPS 47404
2002 01 08.31492 07 02 03.94 +23 29 17.8 19.0   704 – Lincoln Laboratory ETS, New Mexico MPS 47404
2002 01 08.32983 07 02 03.06 +23 29 22.7 19.3   704 – Lincoln Laboratory ETS, New Mexico MPS 47404
2002 01 08.34474 07 02 02.16 +23 29 27.7 19.4   704 – Lincoln Laboratory ETS, New Mexico MPS 47404
2002 01 08.35967 07 02 01.28 +23 29 31.8 19.1   704 – Lincoln Laboratory ETS, New Mexico MPS 47404
2002 01 14.24576 06 56 24.84 +24 00 45.2 20.1   704 – Lincoln Laboratory ETS, New Mexico MPS 47404
2002 01 14.27999 06 56 22.88 +24 00 56.1 19.7   704 – Lincoln Laboratory ETS, New Mexico MPS 47404
2002 01 14.29532 06 56 22.06 +24 00 59.7 20.1   704 – Lincoln Laboratory ETS, New Mexico MPS 47404
2005 09 25.25848 23 55 52.82 -22 06 49.0 19.1 V 703 – Catalina Sky Survey MPS 155801
2005 09 25.26494 23 55 52.46 -22 06 51.1 18.6 V 703 – Catalina Sky Survey MPS 155801
2005 09 25.27138 23 55 52.21 -22 06 53.9 20.0 V 703 – Catalina Sky Survey MPS 155801
2005 09 25.27785 23 55 51.85 -22 06 55.3 19.2 V 703 – Catalina Sky Survey MPS 155801
2005 10 02.59779 23 50 26.84 -22 33 00.7 19.6 V E12 – Siding Spring Survey MPS 155801
2005 10 02.60462 23 50 26.55 -22 33 01.4 19.1 V E12 – Siding Spring Survey MPS 155801
2005 10 02.61147 23 50 26.26 -22 33 03.2 20.3 V E12 – Siding Spring Survey MPS 155801
2005 10 02.61832 23 50 26.05 -22 33 04.5 19.2 V E12 – Siding Spring Survey MPS 155801
2006 10 21.43608 07 55 59.37 +19 07 23.7 21.7 V G96 – Mt. Lemmon Survey MPS 183955
2006 10 21.44060 07 55 59.55 +19 07 24.0 21.6 V G96 – Mt. Lemmon Survey MPS 183955
2006 10 21.44515 07 55 59.80 +19 07 23.8 22.0 V G96 – Mt. Lemmon Survey MPS 183955
2006 10 21.44969 07 55 59.98 +19 07 23.9 21.4 V G96 – Mt. Lemmon Survey MPS 183955
2006 10 22.45448 07 56 48.40 +19 07 41.2 21.1 V G96 – Mt. Lemmon Survey MPS 183955
2006 10 22.46171 07 56 48.69 +19 07 41.8 21.1 V G96 – Mt. Lemmon Survey MPS 183955
2006 10 22.46870 07 56 49.09 +19 07 42.2 21.0 V G96 – Mt. Lemmon Survey MPS 183955
2006 10 22.47578 07 56 49.38 +19 07 42.0 21.1 V G96 – Mt. Lemmon Survey MPS 183955
2006 11 01.38559 08 03 42.48 +19 14 25.3 21.3 V G96 – Mt. Lemmon Survey MPS 185317
2006 11 01.39692 08 03 42.87 +19 14 26.1 20.9 V G96 – Mt. Lemmon Survey MPS 185317
2006 11 01.40850 08 03 43.34 +19 14 27.3 20.7 V G96 – Mt. Lemmon Survey MPS 185317
2006 11 01.41985 08 03 43.66 +19 14 28.1 21.4 V G96 – Mt. Lemmon Survey MPS 185317
2006 12 15.43378 08 05 52.75 +21 43 07.5   691 – Steward Observatory, Kitt Peak-Spacewatch MPS 191937
2006 12 15.45111 08 05 52.17 +21 43 13.2   691 – Steward Observatory, Kitt Peak-Spacewatch MPS 191937
2006 12 15.46845 08 05 51.60 +21 43 19.4   691 – Steward Observatory, Kitt Peak-Spacewatch MPS 191937
2006 12 24.34082 08 00 13.79 +22 36 46.9 20.2 V 691 – Steward Observatory, Kitt Peak-Spacewatch MPS 191937
2006 12 24.35815 08 00 13.00 +22 36 53.4 20.3 V 691 – Steward Observatory, Kitt Peak-Spacewatch MPS 191937
2006 12 24.37549 08 00 12.22 +22 37 00.0 20.4 V 691 – Steward Observatory, Kitt Peak-Spacewatch MPS 191937
2007 01 15.23778 07 40 52.02 +24 55 23.7 19.3 R 699 – Lowell Observatory-LONEOS MPS 196306
2007 01 15.26339 07 40 50.48 +24 55 33.8   699 – Lowell Observatory-LONEOS MPS 196306
2007 01 15.28900 07 40 48.97 +24 55 40.7   699 – Lowell Observatory-LONEOS MPS 196306
2007 01 15.31461 07 40 47.47 +24 55 51.5   699 – Lowell Observatory-LONEOS MPS 196306
2007 01 24.21016 07 32 26.96 +25 45 38.8 19.8   704 – Lincoln Laboratory ETS, New Mexico MPS 196986
2007 01 24.22246 07 32 26.31 +25 45 42.8 19.9   704 – Lincoln Laboratory ETS, New Mexico MPS 196986
2007 01 24.23479 07 32 25.67 +25 45 48.9 20.0   704 – Lincoln Laboratory ETS, New Mexico MPS 196986
2007 01 24.25939 07 32 24.30 +25 45 56.1 20.2   704 – Lincoln Laboratory ETS, New Mexico MPS 196986
2007 01 27.17076 07 29 50.06 +26 00 37.2 19.2 V G96 – Mt. Lemmon Survey MPS 198030
2007 01 27.17825 07 29 49.81 +26 00 38.7 19.3 V G96 – Mt. Lemmon Survey MPS 198030
2007 01 27.18565 07 29 49.30 +26 00 41.0 19.9 V G96 – Mt. Lemmon Survey MPS 198030
2007 01 27.19337 07 29 48.91 +26 00 43.2 20.2 V G96 – Mt. Lemmon Survey MPS 198030
2007 01 28.17208 07 28 58.62 +26 05 27.9 19.7 V G96 – Mt. Lemmon Survey MPS 198030
2007 01 28.17895 07 28 58.26 +26 05 29.7 19.8 V G96 – Mt. Lemmon Survey MPS 198030
2007 01 28.18582 07 28 57.86 +26 05 31.7 19.9 V G96 – Mt. Lemmon Survey MPS 198030
2007 01 28.19265 07 28 57.54 +26 05 33.8 19.9 V G96 – Mt. Lemmon Survey MPS 198030
2010 06 24.067668 00 30 03.95 -09 05 16.3   C51 – WISE MPS 334783
2010 06 24.199971 00 30 13.565 -09 05 02.36   C51 – WISE MPS 903772
2010 06 24.464579 00 30 32.59 -09 04 36.8   C51 – WISE MPS 334783
2010 06 24.663097 00 30 46.882 -09 04 21.29   C51 – WISE MPS 903772
2010 06 24.729185 00 30 51.54 -09 04 13.1   C51 – WISE MPS 334783
2010 06 24.795273 00 30 56.38 -09 04 08.2   C51 – WISE MPS 334783
2010 06 24.795400 00 30 56.40 -09 04 08.0   C51 – WISE MPS 334783
2010 06 24.861488 00 31 01.15 -09 04 02.3   C51 – WISE MPS 334783
2010 06 24.927578 00 31 05.78 -09 03 57.0   C51 – WISE MPS 334783
2010 06 24.993793 00 31 10.66 -09 03 49.8   C51 – WISE MPS 334783
2010 06 25.059881 00 31 15.30 -09 03 45.9   C51 – WISE MPS 334783
2010 06 25.192185 00 31 24.78 -09 03 32.7   C51 – WISE MPS 334783
2010 06 25.589096 00 31 53.11 -09 02 58.8   C51 – WISE MPS 334783
2010 09 16.33841 01 04 26.43 -15 18 01.7 18.8 V 703 – Catalina Sky Survey MPS 347890
2010 09 16.34593 01 04 26.07 -15 18 05.5 19.1 V 703 – Catalina Sky Survey MPS 347890
2010 09 16.35343 01 04 25.75 -15 18 08.8 18.9 V 703 – Catalina Sky Survey MPS 347890
2010 09 16.36090 01 04 25.53 -15 18 11.5 19.1 V 703 – Catalina Sky Survey MPS 347890
2010 10 14.432324 00 43 35.965 -17 42 15.07 19.86 g F51 – Pan-STARRS 1, Haleakala MPS 366781
2010 10 14.444089 00 43 35.413 -17 42 16.15 19.90 g F51 – Pan-STARRS 1, Haleakala MPS 366781
2011 01 28.24146 01 21 13.703 -02 47 35.44 21.4 w F51 – Pan-STARRS 1, Haleakala MPS 382055
2011 01 28.24702 01 21 14.126 -02 47 31.26 21.7 w F51 – Pan-STARRS 1, Haleakala MPS 382055
2011 01 28.25335 01 21 14.597 -02 47 26.43 21.5 w F51 – Pan-STARRS 1, Haleakala MPS 382055
2011 01 28.25884 01 21 15.001 -02 47 22.40 21.5 w F51 – Pan-STARRS 1, Haleakala MPS 382055
2011 01 29.24046 01 22 29.715 -02 35 08.31 21.3 w F51 – Pan-STARRS 1, Haleakala MPS 382055
2011 01 29.24576 01 22 30.112 -02 35 04.43 21.5 w F51 – Pan-STARRS 1, Haleakala MPS 382055
2011 01 29.25177 01 22 30.569 -02 34 59.88 21.5 w F51 – Pan-STARRS 1, Haleakala MPS 382055
2011 01 29.25706 01 22 30.963 -02 34 55.90 21.4 w F51 – Pan-STARRS 1, Haleakala MPS 382055
2011 10 24.45904 08 26 23.02 +19 23 20.3 21.6 V G96 – Mt. Lemmon Survey MPS 398007
2011 10 24.46435 08 26 23.31 +19 23 20.5 21.2 V G96 – Mt. Lemmon Survey MPS 398007
2011 10 24.46968 08 26 23.56 +19 23 20.5 21.2 V G96 – Mt. Lemmon Survey MPS 398007
